A/2019 O4

Japanese version
Home page
Updated on August 10, 2019

---------------------------------------------------------------------

* Profile

Discovery Date July 27, 2019
Magnitude 21.4 mag
Discoverer Pan-STARRS 1 telescope (Haleakala)

* Orbital Elements

Epoch 2020 Feb. 1.0 TT = JDT 2458880.5                                          
T 2020 Feb.  9.92984 TT                                 MPCLINUX                
q   3.6443784            (2000.0)            P               Q                  
n   0.00523292     Peri.   61.80568     +0.43750944     -0.89562832             
a  32.8579263      Node   354.91835     -0.69738677     -0.28163993             
e   0.8890868      Incl.  115.08490     +0.56765939     +0.34428020             
P 188              H   15.5                                                     
From 32 observations 2018 Aug. 6-2019 Aug. 4, mean residual 0".4.               

* Magnitudes Graph

        H = 15.5  G = 0.15

---------------------------------------------------------------------

The orbital elements are published on M.P.E.C. 2019-P56.
The magnitudes graphs are made with Comet for Windows.

---------------------------------------------------------------------

Copyright(C) Seiichi Yoshida (comet@aerith.net). All rights reserved.